Flag for U.S.A. Weather past 2 weeks in Newport News, Virginia, U.S.A.

Now
57 °F

Clear.


Feels Like: 57 °F
Forecast: 57 / 72 °F
Wind: No wind

Location: Newport News / Williamsburg International Airport

Current Time: Oct 21, 2014 at 12:04:54 AM

Latest Report: Oct 20, 2014 at 10:54 PM


Visibility: 10 mi

Pressure: 29.99 "Hg

Humidity: 81%

Dew point: 51 °F

Location of Newport NewsLocation

Historic Weather in Newport News — Graph

°F

Newport News temperature yesterday

Maximum temperature yesterday: 69 °F (at 2:54 PM)
Minimum temperature yesterday: 40 °F (at 3:54 AM)
Average temperature yesterday: 55 °F

Past Weeks' High & Low Weather Summary

 TemperatureHumidityPressure
High87 °F (Oct 14, 2:54 PM)89% (Oct 20, 3:54 AM)30.28 "Hg (Oct 20, 3:54 AM)
Low40 °F (Oct 20, 3:54 AM)30% (Oct 19, 2:54 PM)29.69 "Hg (Oct 18, 1:54 PM)
Average68 °F66%30.00 "Hg
* Reported Oct 5 9:54 PM — Oct 20 9:54 PM, Newport News, Weather by CustomWeather, © 2014

Note: Actual official high and low records may vary slightly from our data, if they occured in-between our weather recording intervals... More about our weather records

Advertising

Newport News weather history for previous 24 hours

 ConditionsComfort  
Time TempWeatherWind HumidityBarometerVisibility
9:54 PM
Oct 20
55 °FClear.No wind83%30.00 "Hg10 mi
8:54 PM55 °FClear.No wind80%30.00 "Hg10 mi
7:54 PM58 °FClear.No wind75%30.00 "Hg10 mi
6:54 PM59 °FSunny.3 mph69%29.99 "Hg10 mi
5:54 PM66 °FSunny.6 mph50%29.99 "Hg10 mi
4:54 PM69 °FSunny.8 mph39%29.99 "Hg10 mi
3:54 PM69 °FSunny.10 mph32%30.01 "Hg10 mi
2:54 PM69 °FSunny.7 mph36%30.03 "Hg10 mi
1:54 PM68 °FSunny.13 mph33%30.06 "Hg10 mi
12:54 PM66 °FSunny.12 mph42%30.10 "Hg10 mi
11:54 AM63 °FSunny.14 mph47%30.14 "Hg10 mi
10:54 AM62 °FSunny.15 mph48%30.16 "Hg10 mi
9:54 AM59 °FSunny.9 mph56%30.17 "Hg10 mi
8:54 AM54 °FSunny.3 mph80%30.17 "Hg10 mi
7:54 AM44 °FClear.No wind85%30.15 "Hg10 mi
6:54 AM41 °FClear.No wind89%30.14 "Hg10 mi
5:54 AM41 °FClear.No wind89%30.14 "Hg10 mi
4:54 AM42 °FClear.No wind82%30.13 "Hg10 mi
3:54 AM40 °FClear.No wind89%30.12 "Hg10 mi
2:54 AM43 °FClear.No wind86%30.13 "Hg10 mi
1:54 AM43 °FClear.No wind82%30.13 "Hg10 mi
12:54 AM44 °FClear.No wind85%30.12 "Hg10 mi
Weather by CustomWeather, © 2014

See weather overviewHow to use our weather pages